This demonstration page uses our WeatherBlox Daily Observations layout. Learn more.

Left ArrowRight Arrow

39.92423, -83.80882

Hourly Observations for August 18, 2021

Temp ( °F °C ) Dew Point ( °F °C ) Humidity (%) Winds ( mph kmh ) Pressure ( in mb ) Visibility ( mi km ) Precip ( " mm )
12:56 am 00:56 Clear 70 21 N/A N/A E 5 7 30.04 1017 10 16 0.00 0.00
1:56 am 01:56 Clear 70 21 N/A N/A NE 5 7 30.01 1016 10 16 0.00 0.00
2:56 am 02:56 Clear 68 20 N/A N/A NNE 5 7 30.01 1016 10 16 0.00 0.00
3:56 am 03:56 Mostly Cloudy 68 20 N/A N/A NNE 3 6 30.01 1016 10 16 0.00 0.00
4:56 am 04:56 Cloudy 70 21 N/A N/A NNW 5 7 30.02 1017 10 16 0.00 0.00
5:56 am 05:56 Cloudy 70 21 N/A N/A NNW 3 6 30.03 1017 10 16 0.00 0.00
6:56 am 06:56 Cloudy 70 21 N/A N/A NNW 6 9 30.05 1018 10 16 0.00 0.00
7:56 am 07:56 Cloudy 70 21 N/A N/A NNW 5 7 30.07 1018 10 16 0.00 0.00
8:56 am 08:56 Mostly Sunny 72 22 N/A N/A NW 5 7 30.08 1019 10 16 0.00 0.00
9:56 am 09:56 Sunny 76 24.4 74 23.3 94 94 N 6 9 30.09 1019 10 16 0.00 0.00
10:22 am 10:22 Mostly Cloudy 79 26 73 23 84 84 NNW 8 13 30.06 1018 10 16 0.00 0.00
10:43 am 10:43 Partly Cloudy 79 26 72 22 79 79 N 7 11 30.06 1018 10 16 0.00 0.00
10:56 am 10:56 Mostly Sunny 77 25 71 21.7 82 82 N 8 13 30.09 1019 10 16 0.00 0.00
11:47 am 11:47 Mostly Cloudy 79 26 73 23 84 84 NW 7 11 30.07 1018 10 16 0.00 0.00
11:56 am 11:56 Partly Cloudy 80 26.7 72 22.2 76 76 NNW 6 9 30.10 1019 10 16 0.00 0.00
12:56 pm 12:56 Mostly Sunny 82 27.8 71 21.7 69 69 VRB 3 6 30.09 1019 10 16 0.00 0.00
1:56 pm 13:56 Mostly Cloudy 83 28.3 71 21.7 67 67 Calm 30.09 1019 10 16 0.00 0.00
2:56 pm 14:56 Mostly Cloudy with Haze 83 28.3 73 22.8 72 72 WNW 5 7 30.09 1019 5 8 0.00 0.00
3:45 pm 15:45 Mostly Cloudy 84 29 73 23 70 70 NNW 6 9 30.04 1017 10 16 0.00 0.00
3:56 pm 15:56 Mostly Cloudy 85 29.4 74 23.3 70 70 NNW 7 11 30.08 1019 10 16 0.00 0.00
4:56 pm 16:56 Partly Cloudy 82 27.8 73 22.8 74 74 NW 5 7 30.08 1019 10 16 0.00 0.00
5:56 pm 17:56 Partly Cloudy 79 26.1 79 26.1 100 100 Calm 30.08 1019 10 16 0.00 0.00
6:56 pm 18:56 Sunny 81 27.2 77 25 88 88 Calm 30.07 1018 10 16 0.00 0.00
7:56 pm 19:56 Sunny 77 25 77 25 100 100 Calm 30.09 1019 10 16 0.00 0.00
8:56 pm 20:56 Clear 75 24 N/A N/A Calm 30.10 1019 10 16 0.00 0.00
9:56 pm 21:56 Clear 73 23 N/A N/A Calm 30.11 1020 10 16 0.00 0.00
10:56 pm 22:56 Clear 73 23 N/A N/A NE 3 6 30.12 1020 10 16 0.00 0.00
11:56 pm 23:56 Clear 72 22 N/A N/A Calm 30.12 1020 10 16 0.00 0.00

Powered by AerisWeather